Location: Newark
(25.0000°N, 73.5000°E)
Time: 04:18:32
(UTC+00:00)

SR - All Passes

Search period start: 04 August 2021 00:00
Search period end: 14 August 2021 00:00
Orbit: 577 x 877 km, 66.7° (Epoch: 03 August)

Date Brightness Start Highest point End Pass type
(mag) Time Alt. Az. Time Alt. Az. Time Alt. Az.
04 Aug - 01:23:04 10° WNW 01:24:47 11° NW 01:26:31 10° NW daylight
04 Aug - 10:08:56 10° NNW 10:13:24 80° WSW 10:17:38 10° SSE daylight
04 Aug - 22:47:16 10° S 22:52:36 36° ESE 22:57:48 10° NE visible
05 Aug - 00:29:58 10° WSW 00:34:38 24° WNW 00:39:12 10° N daylight
05 Aug - 09:19:26 10° N 09:23:36 36° ENE 09:27:31 10° SE daylight
05 Aug - 11:03:43 10° W 11:05:05 11° WSW 11:06:26 10° WSW daylight
05 Aug - 21:59:29 10° SE 22:03:00 16° ESE 22:06:29 10° ENE visible
05 Aug - 23:38:59 10° SW 23:44:42 51° WNW 23:50:14 10° N visible
06 Aug - 08:30:58 10° NNE 08:33:33 15° ENE 08:36:03 10° E daylight
06 Aug - 10:11:42 10° NW 10:15:36 31° WSW 10:19:20 10° S daylight
06 Aug - 22:49:00 10° SSW 22:54:53 74° ESE 23:00:35 10° NNE visible
07 Aug - 00:35:04 10° W 00:37:19 12° WNW 00:39:34 10° NNW daylight
07 Aug - 09:21:30 10° NNW 09:25:57 89° W 09:30:11 10° SSE daylight
07 Aug - 21:59:58 10° S 22:05:12 33° ESE 22:10:17 10° NE visible
07 Aug - 23:42:23 10° WSW 23:47:12 26° WNW 23:51:54 10° N visible
08 Aug - 08:32:05 10° N 08:36:07 33° ENE 08:39:58 10° SE daylight
08 Aug - 10:15:48 10° W 10:17:40 13° WSW 10:19:31 10° SW daylight
08 Aug - 21:12:27 10° SE 21:15:37 15° ESE 21:18:45 10° ENE visible
08 Aug - 22:51:31 10° SW 22:57:16 55° WNW 23:02:50 10° NNE visible
09 Aug - 07:43:50 10° NNE 07:46:04 14° ENE 07:48:14 10° E daylight
09 Aug - 09:24:11 10° NW 09:28:09 34° WSW 09:31:59 10° S daylight
09 Aug - 22:01:37 10° SSW 22:07:29 69° ESE 22:13:08 10° NNE visible
09 Aug - 23:47:11 10° W 23:49:52 13° WNW 23:52:30 10° NNW visible
10 Aug - 08:34:04 10° NNW 08:38:31 82° ENE 08:42:43 10° SSE daylight
10 Aug - 21:12:43 10° SSE 21:17:48 31° ESE 21:22:45 10° NE visible
10 Aug - 22:54:49 10° WSW 22:59:45 28° WNW 23:04:34 10° N visible
11 Aug - 07:44:44 10° N 07:48:39 30° ENE 07:52:23 10° SE daylight
11 Aug - 09:28:00 10° WNW 09:30:15 14° WSW 09:32:28 10° SW daylight
11 Aug - 20:25:28 10° SE 20:28:13 14° ESE 20:30:57 10° ENE visible
11 Aug - 22:04:03 10° SW 22:09:51 60° WNW 22:15:26 10° NNE visible
12 Aug - 06:56:46 10° NNE 06:58:34 12° ENE 07:00:20 10° E daylight
12 Aug - 08:36:40 10° NW 08:40:43 38° WSW 08:44:38 10° S daylight
12 Aug - 21:14:16 10° S 21:20:04 63° ESE 21:25:40 10° NNE visible
12 Aug - 22:59:22 10° W 23:02:23 14° WNW 23:05:22 10° NNW visible
13 Aug - 07:46:38 10° NNW 07:51:03 74° ENE 07:55:14 10° SSE daylight
13 Aug - 20:25:27 10° SSE 20:30:23 28° ESE 20:35:12 10° NE visible
13 Aug - 22:07:15 10° WSW 22:12:20 30° WNW 22:17:14 10° N visible
